Location: *
(50.6089°N, 2.2719°E)
Time: 21:33:49
(UTC+00:00)

STARLINK-40 - Pass Details

Date: 18 October 2019
Orbit: 548 x 551 km, 53.0° (Epoch: 20 November)

Event Time Altitude Azimuth Distance (km) Brightness Sun altitude
Rises 18:28:59 0° 264° (W) 2,716 8.9 -15.9°
Reaches altitude 10° 18:31:14 10° 267° (W) 1,824 7.6 -16.2°
Maximum altitude 18:35:22 66° 351° (N) 602 3.8 -16.9°
Enters shadow 18:37:08 32° 64° (ENE) 955 4.4 -17.2°
